This is the latest recevied weather packets stored in our database for station/object W8DRH-13. If no packets are shown the sender has not sent any weather packets the latest 10 day(s).
| Time | Temp. | Humidity | Pressure | Rain* | Wind** | Luminosity | Snow |
|---|---|---|---|---|---|---|---|
| 1777398152 | 20° C | 74% | 1010.8 hPa | 0 mm | - | 849 W/m² | - |
| 1777397848 | 18.89° C | 75% | 1010.7 hPa | 0 mm | - | 782 W/m² | - |
| 1777397544 | 18.89° C | 76% | 1010.7 hPa | 0 mm | - | 850 W/m² | - |
| 1777397240 | 19.44° C | 76% | 1010.7 hPa | 0 mm | - | 278 W/m² | - |
| 1777396937 | 19.44° C | 75% | 1010.8 hPa | 0 mm | - | 309 W/m² | - |
| 1777396634 | 19.44° C | 75% | 1010.8 hPa | 0 mm | - | 339 W/m² | - |
| 1777396331 | 18.89° C | 75% | 1010.7 hPa | 0 mm | - | 760 W/m² | - |
| 1777396027 | 19.44° C | 75% | 1010.6 hPa | 0 mm | - | 568 W/m² | - |
| 1777395722 | 18.89° C | 76% | 1010.7 hPa | 0 mm | - | 957 W/m² | - |
| 1777395418 | 18.89° C | 77% | 1010.7 hPa | 0 mm | - | 262 W/m² | - |
| 1777395116 | 19.44° C | 77% | 1010.5 hPa | 0 mm | - | 373 W/m² | - |
| 1777394812 | 18.89° C | 77% | 1010.3 hPa | 0 mm | - | 738 W/m² | - |
| 1777394509 | 18.89° C | 78% | 1010.4 hPa | 0 mm | - | 785 W/m² | - |
| 1777394205 | 18.89° C | 78% | 1010.5 hPa | 0 mm | - | 247 W/m² | - |
| 1777393901 | 18.89° C | 79% | 1010.3 hPa | 0 mm | - | 260 W/m² | - |
| 1777393600 | 18.89° C | 78% | 1010.1 hPa | 0 mm | - | 328 W/m² | - |
| 1777393296 | 18.89° C | 79% | 1010.2 hPa | 0 mm | - | 729 W/m² | - |
| 1777392993 | 18.89° C | 80% | 1010.1 hPa | 0 mm | - | 739 W/m² | - |
| 1777392688 | 19.44° C | 78% | 1010 hPa | 0 mm | - | 115 W/m² | - |
| 1777392385 | 19.44° C | 78% | 1009.8 hPa | 0 mm | - | 780 W/m² | - |
| 1777392080 | 19.44° C | 78% | 1010.1 hPa | 0 mm | - | 468 W/m² | - |
| 1777391775 | 19.44° C | 78% | 1010.1 hPa | 0 mm | - | 927 W/m² | - |
| 1777391471 | 19.44° C | 80% | 1010 hPa | 0 mm | - | 970 W/m² | - |
| 1777391168 | 18.89° C | 82% | 1010.1 hPa | 0 mm | - | 802 W/m² | - |
| 1777390864 | 18.89° C | 82% | 1010.1 hPa | 0 mm | - | 130 W/m² | - |
* Rain latest hour (hover to see other rain measurements)
** Current wind speed in m/s (hover to see current wind gust speed)